Showing default

ASTROCAST-0203, 48955

Orbit data source: Space-Track

ASTROCAST-0203, 48955 is a payload satellite owned by Astrocast (CH) in SSO that was launched on Wed, 30 Jun 2021 UTC via an FALCON 9 launch vehicle from the Air Force Eastern Test Range (AFETR). Payload-class satellites include a variety of spacecraft equipped with specific instruments for various scientific and technological missions. These include communications satellites like Starlink; space stations such as the ISS; scientific satellites like the Hubble; Earth observation satellites from companies like Planet Labs, Umbra, and HawkEye 360; GPS; miniature CubeSats for education and research; and military/defense satellites.

Loading next visibility...
Identifier
48955, 2021-059CE
Orbit
SSO
Country
Flag of UnknownUnknown / SWTZ
Related business
Manufacturer
Astrocast
Mission
Operational Commercial Communications
Bus & Motor
CUBESAT 3U, Unknown motor
Mass
5 kg wet, 5 kg dry
Launch date (UTC)
2021-06-30 (4 years ago)
Launch vehicle
FALCON 9
Launch site
Air Force Eastern Test Range (AFETR)
Object type
Payload
Rocket body
Debris
Shape & HBR
Box, 0.1 m
Radar Cross Section
0.035 m², Medium (>0.1 m² and < 1m²)

Expand to show TLE details & history
Last TLE update: 1 day ago

TLE from 1 day ago
0 ASTROCAST-0203
1 48955U 21059CE  25339.98299171  .00144705  00000-0  78964-3 0  9994
2 48955  97.6467 163.1356 0001566  50.0880 310.0524 15.79491921248137
Epoch: 2025-12-05T23:35Z
TLE epoch observation values (Epoch: 2025-12-05T23:35:30.483Z)
Latitude
-0.00003°
Longitude
94.24133°
Altitude
334.366 km
Speed
7.708 km/s
True Right ascension
10h 52m 32s
True Declination
0° 00' 00"
Sunlit
Object was in daylight at epoch
Visualization orbit readout
Latitude
Unknown
Longitude
Unknown
Altitude
Unknown
Speed
Unknown
Apparent Right ascension
Unknown
Apparent Declination
Unknown
Sunlit
N/A
Visualization observer readout
Local Sidereal Time
02:26:44
Azimuth
Unknown
Elevation
Unknown
Doppler factor
Unknown
Orbital elements
Apogee altitude
329.827 km
Perigee altitude
327.727 km
Semi-major axis
6,706.914 km
Eccentricity
0.00016
Inclination
97.6467°
RAAN
163.1356°
Arg. of periapsis
50.088°
True anomaly
310.03866°
Mean anomaly
310.0524°
Eccentric anomaly
310.04553°
Mean motion
3.95147 °/min
Orbital period
91.11 mins
BSTAR
0.00078964
Loading maneuver chart data...
Computing Atmospheric mass density...

Documentation

Showing up to 5 results
|